Location: Newark
(63.1158°N, 8.1461°E)
Time: 09:12:40
(UTC+00:00)

Envisat - Pass Details

Date: 18 December 2019
Orbit: 764 x 766 km, 98.1° (Epoch: 21 January)

Event Time Altitude Azimuth Distance (km) Brightness Sun altitude
Rises 19:25:13 0° 234° (SW) 3,234 6.7 -34.3°
Reaches altitude 10° 19:29:28 10° 269° (W) 2,314 6.2 -34.8°
Maximum altitude 19:30:59 11° 286° (WNW) 2,231 6.2 -34.9°
Drops below altitude 10° 19:32:30 10° 304° (WNW) 2,318 6.2 -35.1°
Sets 19:36:47 0° 338° (NNW) 3,250 6.7 -35.5°
